Location: Killam
(52.7910°N, 111.8608°W)
Time: 09:51:21
(UTC+00:00)

NOAA 15 - Pass Details

Date: 23 December 2025
Orbit: 794 x 809 km, 98.5° (Epoch: 25 January)

Event Time Altitude Azimuth Distance (km) Brightness Sun altitude
Rises 03:23:54 0° 217° (SW) 3,311 8.1 -36.1°
Reaches altitude 10° 03:27:17 10° 240° (WSW) 2,384 7.5 -36.6°
Maximum altitude 03:30:15 15° 274° (W) 2,049 7.3 -37.0°
Drops below altitude 10° 03:33:15 10° 309° (NW) 2,388 7.6 -37.5°
Sets 03:36:40 0° 333° (NNW) 3,321 8.2 -38.0°
